Location: Boiro
(42.6475°N, 8.8834°W)
Time: 08:40:30
(UTC+02:00)

First-Move - Pass Details

Date: 16 April 2024
Orbit: 538 x 600 km, 97.7° (Epoch: 20 May)

Event Time Altitude Azimuth Distance (km) Brightness Sun altitude
Rises 05:38:54 0° 18° (NNE) 2,853 ? -22.5°
Reaches altitude 10° 05:41:09 10° 24° (NNE) 1,954 ? -22.2°
Maximum altitude 05:45:15 47° 99° (E) 808 ? -21.6°
Enters shadow 05:47:24 25° 160° (SSE) 1,233 ? -21.3°
